{"data":{"norad_id":59390,"intl_designator":"2024-062S","name":"STARLINK-31649","alt_names":[],"object_type":"PAYLOAD","status":"ACTIVE","operator":null,"country":"US","launch_date":"2024-04-02","launch_site_code":"AFWTR","launch_vehicle":null,"mission":null,"orbit_class":"UNKNOWN","rcs_meters":null,"size_class":null,"mass_kg":null,"dimensions":null,"purposes":["comms"],"wikipedia_slug":null,"has_3d_model":false,"image_url":null,"decayed_at":null,"tle_current":{"epoch":"2026-09-21T20:53:58.130880Z","epoch_age_seconds":43895,"freshness":"FRESH","line1":"1 59390U 24062S   26264.87081170  .00000081  00000+0  13527-4 0  9992","line2":"2 59390  53.1614  61.1554 0000801  91.8843 268.2252 15.34393894139753","mean_motion":15.34393894,"eccentricity":8.01e-5,"inclination_deg":53.1614,"raan_deg":61.1554,"arg_perigee_deg":91.8843,"mean_anomaly_deg":268.2252,"bstar":1.3527e-5,"rev_number":13975,"period_min":93.848131541118,"perigee_km":462.17343582914,"apogee_km":463.269341343,"semimajor_km":6840.8583885861,"source":"CELESTRAK","updated_at":"2026-09-22T09:00:48.911180Z"}}}